Regional Weather Roundup
Issued by NWS State College, PA

Home | Current Version | Previous Version | Text Only | Print | Product List | Glossary Off
Versions: 1 2 3 4 5 6 7 8 9 10 11 12 13 14 15 16 17 18 19 20 21 22 23 24 25 26 27 28 29 30 31 32 33 34 35 36 37 38 39 40 41 42 43 44 45 46 47 48 49 50

309
ASUS41 KCTP 101303
RWRCTP

REGIONAL WEATHER ROUNDUP
NATIONAL WEATHER SERVICE STATE COLLEGE PA
800 AM EST SAT DEC 10 2016

Note: "fair" indicates few or no clouds below 12,000 feet with no
significant weather and/or obstructions to visibility.

* = STATION THAT DOES NOT REPORT PRECIPITATION /E.G. RAIN...SNOW...ETC/
    THUNDER OR FOG.

PAZ002>004-007>009-013>016-020>023-029>032-101400-
WESTERN PENNSYLVANIA

CITY           SKY/WX    TMP DP  RH WIND       PRES   REMARKS
ERIE           CLOUDY    29  16  58 W16G26    30.37F
MEADVILLE      LGT SNOW  21  17  84 SW13G20   30.36R FOG     WCI   9
FRANKLIN*        N/A     21  12  68 SW9       30.38R WCI  11
NEW CASTLE     CLOUDY    24  17  74 SW13G21   30.44R WCI  12
BEAVER COUNTY  CLOUDY    23  18  80 W16       30.42  WCI  10
BUTLER*        CLOUDY    23  14  68 W12G18    30.45R WCI  12
PITTSBURGH INT FLURRIES  25  18  74 W8        30.45R
PITTSBURGH     CLOUDY    23  16  74 W14       30.44R WCI  11
INDIANA*       CLOUDY    23  18  80 W9        30.42F WCI  13
LATROBE        FLURRIES  23  19  86 SW17      30.46R WCI   9
WASHINGTON CO* CLOUDY    21  16  79 SW10      30.47R WCI  10
$$

PAZ004>006-010>012-017>019-024>028-033>037-041-042-045-046-049>053-101400-
CENTRAL PENNSYLVANIA

CITY           SKY/WX    TMP DP  RH WIND       PRES   REMARKS
BRADFORD       LGT SNOW  20  17  88 W9        30.28R FOG     WCI   9
DUBOIS         LGT SNOW  20  14  77 W15       30.33R WCI   6
CLEARFIELD     CLOUDY    22  15  75 W9G20     30.36R WCI  12
JOHNSTOWN      LGT SNOW  19  15  84 W13G18    30.32S FOG     WCI   6
ALTOONA        CLOUDY    24  18  77 W7        30.39S
STATE COLLEGE  CLOUDY    25  16  68 W12G21    30.37R WCI  14
WILLIAMSPORT   CLOUDY    28  19  69 W8        30.37S
SELINSGROVE    CLOUDY    28  19  69 VRB7      30.41R
FT INDIANTOWN  PTCLDY    28  17  63 W8        30.41R
CAPITAL CITY   MOCLDY    29  16  58 W9        30.43S
HARRISBURG     CLOUDY    30  18  60 W13       30.43R
YORK           CLOUDY    28  17  63 W10       30.44R
$$

PAZ038>040-043-044-047-048-054-055-060>062-067>071-101400-
EASTERN PENNSYLVANIA

CITY           SKY/WX    TMP DP  RH WIND       PRES   REMARKS
SCRANTON       CLOUDY    26  22  84 SW7       30.32S
MOUNT POCONO   LGT SNOW  21  17  84 W9        30.25R FOG     WCI  11
ALLENTOWN      CLOUDY    28  19  69 SW7       30.39R
QUAKERTOWN*    MOSUNNY   27  18  69 SW3       30.40R
READING        PTCLDY    28  17  63 W9        30.41R
LANCASTER      MOCLDY    27  19  72 SW8       30.43R
COATESVILLE    MOSUNNY   27  18  69 W8        30.43R
POTTSTOWN      MOCLDY    27  17  66 W8        30.43R
BLUE BELL      PTCLDY    28  19  69 W6        30.41S
DOYLESTOWN     MOCLDY    28  19  69 SW6       30.40R
WILLOW GROVE   NOT AVBL
NORTH PHILA    PTCLDY    30  19  63 W8        30.45R
PHILADELPHIA   MOCLDY    29  17  61 W9        30.46R
$$




USA.gov is the U.S. government's official web portal to all federal, state and local government web resources and services.